Location: Anglesey
(53.1800°N, 4.2200°W)
Time: 16:46:20
(UTC+00:00)

Envisat - Pass Details

Date: 10 October 2017
Orbit: 764 x 766 km, 98.2° (Epoch: 14 December)

Event Time Altitude Azimuth Distance (km) Brightness Sun altitude
Exits shadow 22:47:20 - 249° (WSW) 2,451 5.8 -36.1°
Reaches altitude 10° 22:48:19 10° 259° (W) 2,308 5.8 -36.2°
Maximum altitude 22:49:54 11° 278° (W) 2,217 5.9 -36.4°
Drops below altitude 10° 22:51:29 10° 296° (WNW) 2,314 6.1 -36.6°
Sets 22:55:42 0° 330° (NNW) 3,249 7.2 -37.0°
